K3GM Weather Reports


Display with metric or nautical units.
time (UTC)temp
F
wind
direction
speed
MPH
gust
MPH
rain 1hr
in
rain 24hr
in
rain mn
in
humidity
%
barometer
mb
20260831183041 79 0 0.0 0.0 0.00 0.00 0.00 71 1020.0
20260831181548 80 0 0.0 0.0 0.00 0.00 0.00 69 1020.0
20260831180045 81 0 0.0 0.0 0.00 0.00 0.00 63 1020.2
20260831174541 81 0 0.0 0.0 0.00 0.00 0.00 70 1020.2
20260831173042 79 0 0.0 0.0 0.00 0.00 0.00 70 1020.1
20260831171539 78 0 0.0 0.0 0.00 0.00 0.00 71 1020.2
20260831170050 80 0 0.0 0.0 0.00 0.00 0.00 69 1020.4
20260831164540 79 0 0.0 0.0 0.00 0.00 0.00 66 1020.5
20260831163046 77 0 0.0 0.0 0.00 0.00 0.00 67 1020.6
20260831161544 77 0 0.0 0.0 0.00 0.00 0.00 69 1020.6
20260831160053 77 0 0.0 0.0 0.00 0.00 0.00 75 1020.4
20260831154603 77 0 0.0 0.0 0.00 0.00 0.00 77 1020.5
20260831153041 76 0 0.0 0.0 0.00 0.00 0.00 77 1020.5
20260831151538 75 0 0.0 0.0 0.00 0.00 0.00 78 1020.5
20260831150051 75 0 0.0 0.0 0.00 0.00 0.00 71 1020.9
20260831144542 75 0 0.0 0.0 0.00 0.00 0.00 72 1020.9
20260831143041 75 0 0.0 0.0 0.00 0.00 0.00 76 1020.7
20260831141540 75 0 0.0 0.0 0.00 0.00 0.00 78 1020.8
20260831140044 74 0 0.0 0.0 0.00 0.00 0.00 72 1020.7
20260831134540 73 0 0.0 0.0 0.00 0.00 0.00 79 1020.7
20260831133042 73 0 0.0 0.0 0.00 0.00 0.00 81 1020.6
20260831131540 73 0 0.0 0.0 0.00 0.00 0.00 76 1020.8
20260831130046 73 0 0.0 0.0 0.00 0.00 0.00 85 1020.9
20260831124542 72 0 0.0 0.0 0.00 0.00 0.00 87 1020.7
20260831123041 72 0 0.0 0.0 0.00 0.00 0.00 86 1020.8
20260831121541 71 0 0.0 0.0 0.00 0.00 0.00 88 1020.8
20260831120040 71 0 0.0 0.0 0.00 0.00 0.00 89 1020.6
20260831114551 70 0 0.0 0.0 0.00 0.00 0.00 90 1020.5
20260831113045 70 0 0.0 0.0 0.00 0.00 0.00 93 1020.2
20260831111548 70 0 0.0 0.0 0.00 0.00 0.00 93 1020.1
20260831110054 69 0 0.0 0.0 0.00 0.00 0.00 95 1019.9
20260831104545 69 0 0.0 0.0 0.00 0.00 0.00 99 1019.9
20260831103042 69 0 0.0 0.0 0.00 0.00 0.00 100 1020.0
20260831101551 69 0 0.0 0.0 0.00 0.00 0.00 100 1019.9
20260831100041 69 0 0.0 0.0 0.00 0.00 0.00 100 1019.5
20260831094543 69 0 0.0 0.0 0.00 0.00 0.00 100 1019.6
20260831093042 70 0 0.0 0.0 0.00 0.00 0.00 100 1019.2
20260831091547 70 0 0.0 0.0 0.00 0.00 0.00 100 1019.2
20260831090044 70 0 0.0 0.0 0.00 0.00 0.00 100 1019.0
20260831084542 70 0 0.0 0.0 0.00 0.00 0.00 100 1019.1
20260831083046 70 0 0.0 0.0 0.00 0.00 0.00 100 1019.3
20260831081543 70 0 0.0 0.0 0.00 0.00 0.00 100 1019.3
20260831080040 70 0 0.0 0.0 0.00 0.00 0.00 100 1019.4
20260831074545 70 0 0.0 0.0 0.00 0.00 0.00 99 1019.3
20260831073044 71 0 0.0 0.0 0.00 0.00 0.00 99 1019.3
20260831071541 71 0 0.0 0.0 0.00 0.00 0.00 99 1019.3
20260831070047 71 0 0.0 0.0 0.00 0.00 0.00 98 1019.4
20260831064543 71 0 0.0 0.0 0.00 0.00 0.00 98 1019.4
20260831063042 71 0 0.0 0.0 0.00 0.00 0.00 97 1019.3
20260831061544 72 0 0.0 0.0 0.00 0.00 0.00 97 1019.3
20260831060041 72 0 0.0 0.0 0.00 0.00 0.00 96 1019.2
20260831054553 72 0 0.0 0.0 0.00 0.00 0.00 96 1019.5
20260831053043 72 0 0.0 0.0 0.00 0.00 0.00 95 1019.5
20260831051545 73 0 0.0 0.0 0.00 0.00 0.00 94 1019.3
20260831050042 73 0 0.0 0.0 0.00 0.00 0.00 93 1019.2
20260831044602 73 0 0.0 0.0 0.00 0.00 0.00 92 1019.5
20260831043044 73 0 0.0 0.0 0.00 0.00 0.00 91 1019.8
20260831041604 74 0 0.0 0.0 0.00 0.00 0.00 89 1019.6
20260831040044 74 0 0.0 0.0 0.00 0.00 0.00 87 1019.8
20260831034545 75 0 0.0 0.0 0.00 0.00 0.00 86 1019.6
20260831033040 76 0 0.0 0.0 0.00 0.00 0.00 83 1019.4
20260831031542 77 0 0.0 0.0 0.00 0.00 0.00 81 1019.4
20260831030047 78 0 0.0 0.0 0.00 0.00 0.00 84 1019.5
20260831024544 78 0 0.0 0.0 0.00 0.00 0.00 84 1019.1
20260831023043 78 0 0.0 0.0 0.00 0.00 0.00 84 1019.0
20260831021542 78 0 0.0 0.0 0.00 0.00 0.00 84 1019.1
20260831020036 78 0 0.0 0.0 0.00 0.00 0.00 84 1019.2
20260831014537 78 0 0.0 0.0 0.00 0.00 0.00 83 1019.5
20260831013047 79 0 0.0 0.0 0.00 0.00 0.00 82 1019.5
20260831011542 79 0 0.0 0.0 0.00 0.00 0.00 82 1019.3
20260831010037 78 0 0.0 0.0 0.00 0.00 0.00 82 1019.3
20260831004537 79 0 0.0 0.0 0.00 0.00 0.00 81 1019.2
20260831003044 79 0 0.0 0.0 0.00 0.00 0.00 81 1018.9
20260831001541 79 0 0.0 0.0 0.00 0.00 0.00 80 1018.7
20260831000044 79 0 0.0 0.0 0.00 0.00 0.00 79 1018.8
20260830234546 80 0 0.0 0.0 0.00 0.00 0.00 77 1019.0
20260830233042 80 0 0.0 0.0 0.00 0.00 0.00 76 1018.8
20260830231557 81 0 0.0 0.0 0.00 0.00 0.00 75 1018.9
20260830230048 81 0 0.0 0.0 0.00 0.00 0.00 74 1018.8
20260830224549 82 0 0.0 0.0 0.00 0.00 0.00 67 1018.8
20260830223038 82 0 0.0 0.0 0.00 0.00 0.00 72 1018.8
20260830221543 82 0 0.0 0.0 0.00 0.00 0.00 65 1018.7
20260830220045 83 0 0.0 0.0 0.00 0.00 0.00 71 1018.5
20260830214541 82 0 0.0 0.0 0.00 0.00 0.00 72 1018.6
20260830213042 82 0 0.0 0.0 0.00 0.00 0.00 69 1018.6
20260830211542 82 0 0.0 0.0 0.00 0.00 0.00 70 1018.7
20260830210043 83 0 0.0 0.0 0.00 0.00 0.00 63 1018.7
20260830204540 83 0 0.0 0.0 0.00 0.00 0.00 61 1018.6
20260830203042 83 0 0.0 0.0 0.00 0.00 0.00 68 1018.6
20260830201543 82 0 0.0 0.0 0.00 0.00 0.00 64 1018.9
20260830200048 82 0 0.0 0.0 0.00 0.00 0.00 60 1019.3
20260830194544 83 0 0.0 0.0 0.00 0.00 0.00 67 1019.3
20260830193047 84 0 0.0 0.0 0.00 0.00 0.00 59 1019.3
20260830191551 84 0 0.0 0.0 0.00 0.00 0.00 60 1019.4
20260830190043 84 0 0.0 0.0 0.00 0.00 0.00 61 1019.5
20260830184543 84 0 0.0 0.0 0.00 0.00 0.00 67 1019.8